AirNav   ProFlight Series 2 Aviation Headset
 
 1144 users online  

MO05 Truman Medical Center West Heliport
Kansas City, Missouri, USA

GOING TO KANSAS CITY?


FAA INFORMATION EFFECTIVE 16 JULY 2020

Location

FAA Identifier: MO05
Lat/Long: 39-05-03.0000N 094-34-27.0000W
39-05.050000N 094-34.450000W
39.0841667,-94.5741667
(estimated)
Elevation: 983 ft. / 300 m (estimated)
Variation: 04E (1995)
Time zone: UTC -5 (UTC -6 during Standard Time)
Zip code: 64108

Heliport Operations

Heliport use: Private use, MEDICAL USE.
Activation date: 01/2000
Control tower: no
ARTCC: KANSAS CITY CENTER
FSS: COLUMBIA FLIGHT SERVICE STATION
Attendance: UNATNDD
Wind indicator: yes
Segmented circle: no
Lights: FOR PERIMETER LGTS CALL 816-373-4415.
Beacon: white-green-yellow (heliport)
FOR ROTG BCN CALL 816-373-4415.

Heliport Communications

WX ASOS at MKC (2.5 nm N): PHONE 816-329-2843
WX ASOS at LXT (12 nm SE): 124.175 (816-347-9807)
WX ASOS at MCI (14 nm NW): PHONE 816-329-2808
WX ASOS at OJC (16 nm SW): 119.35 (913-780-6969)
WX AWOS-3 at GPH (19 nm NE): 120.275 (816-407-3399)

Nearby radio navigation aids

VOR radial/distance  VOR name  Freq  Var
MCIr143/14.2KANSAS CITY VORTAC113.2505E
ANXr261/20.7NAPOLEON VORTAC114.0007E

Heliport Services

Runway Information

Helipad H1

Dimensions: 50 x 50 ft. / 15 x 15 m
Surface: concrete
Runway edge lights: PERI
Latitude: 39-05.050000N
Longitude: 094-34.450000W
Elevation: 983.0 ft.
Traffic pattern: leftleft

Heliport Ownership and Management from official FAA records

Ownership: Privately-owned
Owner: TRUMAN MEDICAL CENTER WEST
7900 LEE'S SUMMIT RD
KANSAS CITY, MO 64139
Phone 816-373-4415
EXT. 1292.
Manager: MICHAEL SULLIVAN
2301 HOLMES ST.
KANSAS CITY, MO 64108
Phone 816-404-2620
ASSOC. ADMIN./FACILITIES

Additional Remarks

OWNER DESIRES HELIPORT NOT BE CHARTED.
FOR CD CTC KANSAS CITY APCH AT 816-329-2710.

Instrument Procedures

There are no published instrument procedures at MO05.

Some nearby airports with instrument procedures:

KMKC - Charles B Wheeler Downtown Airport (2 nm N)
KLXT - Lee's Summit Municipal Airport (12 nm SE)
KMCI - Kansas City International Airport (14 nm NW)
KOJC - Johnson County Executive Airport (16 nm SW)
3GV - East Kansas City Airport (17 nm E)
KGPH - Midwest National Air Center Airport (19 nm NE)
 
Loc | Ops | Rwys | IFR | FBO | Links
Com | Nav | Svcs | Stats | Notes
Area around MO05 (Truman Medical Center West Heliport)
 
Road maps at: MapQuest Bing Google
 
Aerial photo
No photo
 
Sectional chart

 
Airport distance calculator
Flying to Truman Medical Center West Heliport? Find the distance to fly.

From to MO05

Sunrise and sunset
Times for 08-Aug-2020
 Local
(UTC-5)
 Zulu
(UTC)
Morning civil twilight05:5810:58
Sunrise06:2711:27
Sunset20:2001:20
Evening civil twilight20:5001:50

Current date and time
Zulu (UTC)  08-Aug-2020 18:03:50
Local (UTC-5)  08-Aug-2020 13:03:50
 
METAR
KMKC 
2nm NW 
081754Z 17011G22KT 10SM SCT027 BKN033 29/22 A2998 RMK AO2 SLP142 T02890222 10294 20228 58017
KLXT 
12nm SE 
081753Z AUTO 19016G23KT 10SM FEW024 29/22 A3001 RMK AO2 SLP151 T02940222 10294 20228 58015
KMCI 
15nm NW 
081753Z 19011G21KT 10SM SCT024 SCT080 SCT120 29/24 A2999 RMK AO2 SLP144 T02890239 10289 20217 58011 $
KOJC 
16nm SW 
081753Z 19010G21KT 10SM OVC026 27/23 A3000 RMK AO2 SLP147 T02720233 10278 20217 58015
KGPH 
19nm NE 
081755Z AUTO 17007G15KT 10SM CLR 27/21 A3000 RMK AO2
TAF
KMKC 
2nm NW 
081724Z 0818/0918 17015KT P6SM BKN028 FM081930 17015KT P6SM FEW035 SCT060 FM090100 15010KT P6SM SCT250 FM090900 17010KT P6SM SCT120 WS020/23035KT FM091300 19012KT P6SM BKN120
KMCI 
15nm NW 
081724Z 0818/0918 18015KT P6SM BKN028 FM082000 17015KT P6SM FEW035 BKN060 FM090100 15010KT P6SM SCT250 FM090900 17010KT P6SM SCT120 WS020/23035KT FM091300 19012KT P6SM BKN120
NOTAMs
Click for the latest NOTAMs
NOTAMs are issued by the DoD/FAA and will open in a separate window not controlled by AirNav.

 

 
 

Would you like to see your business listed on this page?

 If your business provides an interesting product or service to pilots, flight crews, aircraft, or users of the Truman Medical Center West Heliport, you should consider listing it here.  To start the listing process, click on the button below
 
Add a business
 

Other Pages about Truman Medical Center West Heliport

Update a link
 
Copyright © AirNav, LLC. All rights reserved. Privacy Policy  Contact